EW9663 Weather Reports


time (UTC)temp
C
wind
direction
speed
KPH
gust
KPH
rain 1hr
cm
rain 24hr
cm
rain mn
cm
humidity
%
barometer
mb
20181023090023 18 71 0.0 0.0 0.00 0.03 0.00 55 1023.8
20181023084506 17 95 0.0 0.0 0.00 0.03 0.00 57 1023.8
20181023083146 17 85 0.0 0.0 0.00 0.03 0.00 58 1023.8
20181023081621 16 107 0.0 0.0 0.00 0.03 0.00 59 1023.7
20181023080239 16 90 0.0 0.0 0.00 0.03 0.00 59 1023.6
20181023074655 16 97 0.0 0.0 0.00 0.03 0.00 57 1023.5
20181023073117 16 111 0.0 0.0 0.00 0.03 0.00 57 1023.3
20181023071622 16 113 0.0 0.0 0.00 0.03 0.00 57 1023.0
20181023070049 16 111 0.0 0.0 0.00 0.03 0.00 56 1022.9
20181023064611 16 81 0.0 0.0 0.00 0.03 0.00 56 1022.7
20181023063100 16 98 0.0 0.0 0.00 0.03 0.00 56 1022.6
20181023061615 16 105 0.0 0.0 0.00 0.03 0.00 55 1022.5
20181023060058 16 102 0.0 0.0 0.00 0.03 0.00 54 1022.5
20181023054627 16 82 0.0 0.0 0.00 0.03 0.00 53 1022.2
20181023053204 16 108 0.0 0.0 0.00 0.03 0.00 53 1022.0
20181023051549 17 98 0.0 0.0 0.00 0.03 0.00 52 1022.0
20181023050058 17 112 0.0 0.0 0.00 0.03 0.00 51 1021.9
20181023044551 17 98 0.0 0.0 0.00 0.03 0.00 51 1021.8
20181023043029 17 90 0.0 0.0 0.00 0.03 0.00 51 1021.8
20181023041532 17 115 0.0 0.0 0.00 0.03 0.00 51 1021.8
20181023040119 17 108 0.0 0.0 0.00 0.03 0.00 50 1021.7
20181023034610 17 106 0.0 0.0 0.00 0.03 0.00 50 1021.7
20181023033031 17 103 0.0 0.0 0.00 0.03 0.00 50 1021.6
20181023031536 17 90 0.0 0.0 0.00 0.03 0.00 50 1021.5
20181023030049 17 90 0.0 0.0 0.00 0.03 0.00 52 1021.5
20181023024521 16 91 0.0 0.0 0.00 0.03 0.00 53 1021.5
20181023023021 16 67 0.0 0.0 0.00 0.03 0.00 54 1021.5
20181023021525 16 67 0.0 0.0 0.00 0.03 0.00 54 1021.7
20181023020032 16 65 0.0 0.0 0.00 0.03 0.00 55 1021.7
20181023014517 16 71 0.0 0.0 0.00 0.03 0.00 55 1021.6
20181023013043 16 72 0.0 0.0 0.00 0.03 0.00 56 1021.7
20181023010027 16 70 0.0 0.0 0.00 0.03 0.00 61 1021.7
20181023004549 16 70 0.0 0.0 0.00 0.03 0.00 61 1021.6
20181023003010 16 70 0.0 0.0 0.00 0.03 0.00 61 1021.6
20181023001529 16 70 0.0 0.0 0.00 0.03 0.00 62 1021.5
20181023000008 16 69 0.0 0.0 0.00 0.03 0.00 62 1021.4
20181022234508 17 34 0.0 0.0 0.00 0.03 0.00 62 1021.4
20181022233003 17 34 0.0 0.0 0.00 0.03 0.00 60 1021.6
20181022231647 17 32 0.0 0.0 0.00 0.03 0.00 60 1021.6
20181022230112 17 30 0.0 0.0 0.00 0.03 0.00 59 1021.6
20181022224715 17 30 0.0 0.0 0.00 0.03 0.03 59 1021.6
20181022223132 17 30 0.0 0.0 0.00 0.03 0.03 60 1021.5
20181022221623 16 28 0.0 0.0 0.00 0.03 0.03 65 1021.6
20181022220201 15 336 0.0 0.0 0.00 0.03 0.03 86 1021.4
20181022213127 15 333 0.0 0.0 0.00 0.03 0.03 88 1021.4
20181022211602 16 333 0.0 0.0 0.00 0.03 0.03 88 1021.3
20181022210107 16 333 0.0 0.0 0.00 0.03 0.03 87 1021.2
20181022204615 16 333 0.0 0.0 0.00 0.03 0.03 88 1021.0
20181022203240 16 333 0.0 0.0 0.00 0.03 0.03 86 1020.7
20181022201651 17 333 0.0 0.0 0.00 0.03 0.03 85 1020.6
20181022200139 17 333 0.0 0.0 0.00 0.03 0.03 84 1020.4
20181022194558 17 333 0.0 0.0 0.00 0.03 0.03 84 1020.5
20181022193141 18 333 0.0 0.0 0.00 0.03 0.03 81 1020.5
20181022191618 18 333 0.0 0.0 0.00 0.03 0.03 80 1020.4
20181022190142 18 333 0.0 0.0 0.00 0.03 0.03 79 1020.3
20181022184655 19 329 0.0 0.0 0.00 0.03 0.03 77 1020.3
20181022183157 19 336 0.0 0.0 0.00 0.03 0.03 75 1020.1
20181022181706 20 5 0.0 0.0 0.00 0.03 0.03 74 1020.1
20181022180108 20 329 0.0 0.0 0.00 0.03 0.03 73 1020.0
20181022174551 20 355 0.0 0.0 0.00 0.03 0.03 72 1019.9
20181022173104 20 355 0.0 0.0 0.00 0.03 0.03 72 1019.8
20181022171845 21 355 0.0 0.0 0.00 0.03 0.03 71 1019.8
20181022170056 21 360 0.0 0.0 0.00 0.03 0.03 72 1019.7
20181022164612 21 316 0.0 0.0 0.00 0.05 0.03 71 1019.8
20181022163120 21 315 0.0 0.0 0.00 0.05 0.03 70 1019.8
20181022161608 21 330 0.0 0.0 0.00 0.05 0.03 71 1019.9
20181022160145 21 331 0.0 0.0 0.00 0.05 0.03 71 1019.8
20181022154719 21 294 0.0 0.0 0.00 0.05 0.03 72 1019.9
20181022153115 21 282 0.0 0.0 0.00 0.05 0.03 74 1019.9
20181022151702 21 288 0.0 0.0 0.00 0.05 0.03 73 1019.8
20181022150113 21 306 0.0 0.0 0.00 0.05 0.03 72 1019.8
20181022144550 22 300 0.0 0.0 0.00 0.10 0.03 70 1019.7
20181022143106 22 300 0.0 0.0 0.00 0.10 0.03 69 1019.7
20181022141552 21 290 0.0 0.0 0.00 0.10 0.03 70 1019.7
20181022140053 22 302 0.0 0.0 0.00 0.10 0.03 70 1019.7
20181022134606 22 297 0.0 0.0 0.00 0.10 0.03 68 1019.8
20181022133042 22 284 0.0 0.0 0.00 0.10 0.03 69 1019.8
20181022131620 22 283 0.0 0.0 0.00 0.10 0.03 71 1020.0
20181022130327 22 292 0.0 0.0 0.00 0.10 0.03 70 1020.3
20181022124913 22 294 0.0 0.0 0.00 0.10 0.03 70 1020.5
20181022123455 22 329 0.0 0.0 0.00 0.10 0.03 72 1020.7
20181022121541 22 298 0.0 0.0 0.00 0.10 0.03 71 1020.9
20181022120051 23 327 0.0 0.0 0.00 0.10 0.03 68 1021.2
20181022114541 24 38 0.0 0.0 0.00 0.10 0.03 61 1021.4
20181022113018 23 79 0.0 0.0 0.00 0.10 0.03 64 1021.6
20181022111525 23 77 0.0 0.0 0.03 0.10 0.03 66 1021.8
20181022110016 22 82 0.0 0.0 0.03 0.10 0.03 69 1021.9
20181022104507 21 82 0.0 0.0 0.03 0.10 0.03 72 1021.9
20181022103134 21 82 0.0 0.0 0.03 0.10 0.03 74 1022.1
20181022101615 20 82 0.0 0.0 0.00 0.08 0.00 77 1022.1
20181022100117 19 82 0.0 0.0 0.00 0.08 0.00 80 1022.3
20181022094606 18 82 0.0 0.0 0.00 0.08 0.00 83 1022.4
20181022093116 18 82 0.0 0.0 0.00 0.08 0.00 85 1022.5